sat.trackr.live / text

‹ back to catalog

SPACEMOBILE-002

NORAD 61048 · 2024-163D

PAYLOAD ACTIVE UNKNOWN

§ Identity

Operator
Country
US
Launch date
2024-09-12
Launch site
AFETR
Launch vehicle
Mass (kg)
RCS (m²)

External: N2YO · Heavens-Above · Gunter

§ Orbital elements

Epoch: 2026-05-25T01:13:18.770016Z

Period
94.69 min
Inclination
52.9788°
Eccentricity
0.0008921
Mean motion
15.20727766 rev/d
Perigee alt
497.5 km
Apogee alt
509.8 km
Semi-major
6,881.8 km
B*
3.1115e-4
RAAN
55.5318°
Arg perigee
55.8776°
Mean anomaly
304.3063°
Rev number
9,424

§ Raw data

SPACEMOBILE-0021 61048U 24163D   26145.05091169  .00006616  00000+0  31115-3 0  99962 61048  52.9788  55.5318 0008921  55.8776 304.3063 15.20727766 94246

JSON: /api/v1/satellites/61048 · /tle

For live sub-satellite position, see the globe view (requires WebGL).

§ Visibility from observer

Set your observer location to see the next 7 days of passes ≥ 10°. The values pass through the URL so the page stays shareable.

No JS? Fill the form by hand. The geolocation button needs JavaScript.

§ Radio — SatNOGS DB

ModeDescriptionDownlinkUplink
GFSK Mode U - Transmitter 435.900 MHz
BPSK S-band telemetry 2.235 GHz

2 transmitters · refreshed weekly from db.satnogs.org